Location: Alsip
(41.6689°N, 87.7387°W)
Time: 14:42:18
(UTC+00:00)

CZ-4C R/B - Pass Details

Date: 14 July 2020
Orbit: 632 x 1370 km, 63.4° (Epoch: 12 August)

Event Time Altitude Azimuth Distance (km) Brightness Sun altitude
Rises 03:41:51 0° 328° (NNW) 3,775 7.2 -19.4°
Reaches altitude 10° 03:44:34 10° 337° (NNW) 2,931 6.2 -19.7°
Maximum altitude 03:51:06 37° 43° (NE) 1,804 4.0 -20.3°
Enters shadow 03:56:50 16° 102° (ESE) 2,855 4.5 -20.9°
